Location: Dilsberg
(49.3983°N, 8.8354°E)
Time: 01:58:34
(UTC+00:00)

SPOT 3 Rocket - Pass Details

Date: 19 May 2025
Orbit: 775 x 790 km, 98.5° (Epoch: 23 June)

Event Time Altitude Azimuth Distance (km) Brightness Sun altitude
Exits shadow 20:03:05 10° 136° (SE) 2,351 5.3 -7.9°
Reaches altitude 10° 20:03:09 10° 136° (SE) 2,326 5.3 -7.9°
Maximum altitude 20:07:57 43° 67° (ENE) 1,089 4.2 -8.5°
Drops below altitude 10° 20:12:48 10° 357° (N) 2,337 6.8 -9.0°
Sets 20:15:12 0° 351° (N) 3,269 7.8 -9.3°
